Flag for Poland Weather past 2 weeks in Słupsk, Poland

Now
63 °F

Passing clouds.


Feels Like: 63 °F
Forecast: 60 / 73 °F
Wind: 10 mph from West

Location: Leba

Current Time: Jul 6, 2015 at 10:14:41 PM

Latest Report: Jul 6, 2015 at 9:00 PM


Visibility: 13 mi

Pressure: 30.01 "Hg

Humidity: 72%

Dew point: 54 °F

Location of SłupskLocation

Historic Weather in Słupsk — Graph

°F

Słupsk temperature yesterday

Maximum temperature yesterday: 81 °F (at 12:00 PM)
Minimum temperature yesterday: 64 °F (at 3:00 AM)
Average temperature yesterday: 74 °F

Past Weeks' High & Low Weather Summary

 TemperatureHumidityPressure
High84 °F (Jul 4, 12:00 PM)100% (Jul 1, 4:00 AM)30.42 "Hg (Jul 1, 4:00 AM)
Low47 °F (Jun 22, 3:00 AM)32% (Jul 4, 1:00 PM)29.60 "Hg (Jun 23, 5:00 AM)
Average62 °F78%30.07 "Hg
* Reported Jun 21 8:00 PM — Jul 6 8:00 PM, Słupsk, Weather by CustomWeather, © 2015

Note: Actual official high and low records may vary slightly from our data, if they occured in-between our weather recording intervals... More about our weather records

Advertising

Słupsk weather history for previous 24 hours

 ConditionsComfort  
Time TempWeatherWind HumidityBarometerVisibility
8:00 PM
Mon, Jul 6
64 °FPassing clouds.12 mph71%30.01 "Hg12 mi
7:00 PM66 °FScattered clouds.12 mph68%30.01 "Hg12 mi
6:00 PM67 °FScattered clouds.13 mph67%30.01 "Hg12 mi
5:00 PM67 °FPassing clouds.14 mph68%30.01 "Hg12 mi
4:00 PM68 °FPassing clouds.18 mph70%30.01 "Hg12 mi
3:00 PM67 °FScattered clouds.17 mph70%30.00 "Hg12 mi
2:00 PM67 °FPartly sunny.17 mph77%29.98 "Hg12 mi
1:00 PM67 °FOvercast.12 mph81%29.97 "Hg12 mi
12:00 PM64 °FOvercast.12 mph88%29.96 "Hg12 mi
11:00 AM66 °FLow clouds.10 mph94%29.92 "Hg12 mi
10:00 AM70 °FSprinkles. Overcast.9 mph94%29.89 "Hg7 mi
9:00 AM69 °FPartly sunny.5 mph94%29.88 "Hg11 mi
8:00 AM69 °FOvercast.3 mph97%29.88 "Hg11 mi
7:00 AM67 °FThunderstorms. Overcast.1 mph97%29.89 "Hg8 mi
6:00 AM67 °FThundershowers. Overcast.5 mph90%29.93 "Hg10 mi
5:00 AM72 °FThunderstorms. Overcast.8 mph79%29.91 "Hg12 mi
4:00 AM73 °FThunderstorms. Overcast.7 mph68%29.85 "Hg12 mi
3:00 AM71 °FPassing clouds.3 mph74%29.87 "Hg12 mi
2:00 AM72 °FPassing clouds.3 mph75%29.89 "Hg12 mi
1:00 AM72 °FPassing clouds.2 mph78%29.90 "Hg12 mi
12:00 AM73 °FPassing clouds.3 mph80%29.92 "Hg12 mi
11:00 PM
Sun, Jul 5
72 °FPassing clouds.3 mph83%29.95 "Hg11 mi
10:00 PM73 °FPassing clouds.2 mph80%29.95 "Hg11 mi
Weather by CustomWeather, © 2015

See weather overviewHow to use our weather pages